| time (UTC) | temp F | wind direction | speed MPH | gust MPH | rain 1hr in | rain 24hr in | rain mn in | humidity % | barometer mb |
| 20260505083100 | 40 | 360 | 5.0 | 12.0 | 0.01 | 0.03 | 0.03 | 81 | 1016.3 |
| 20260505082041 | 40 | 360 | 7.0 | 12.0 | 0.02 | 0.03 | 0.03 | 81 | 1016.3 |
| 20260505081524 | 40 | 360 | 5.0 | 10.0 | 0.02 | 0.03 | 0.03 | 80 | 1016.3 |
| 20260505081026 | 40 | 360 | 5.0 | 10.0 | 0.02 | 0.03 | 0.03 | 80 | 1016.4 |
| 20260505080529 | 40 | 360 | 6.0 | 9.0 | 0.01 | 0.02 | 0.02 | 80 | 1016.4 |
| 20260505080035 | 40 | 360 | 4.0 | 6.0 | 0.02 | 0.02 | 0.02 | 79 | 1016.5 |
| 20260505075557 | 40 | 360 | 3.0 | 7.0 | 0.02 | 0.02 | 0.02 | 79 | 1016.5 |
| 20260505075039 | 40 | 360 | 4.0 | 8.0 | 0.02 | 0.02 | 0.02 | 79 | 1016.5 |
| 20260505074522 | 40 | 360 | 5.0 | 10.0 | 0.02 | 0.02 | 0.02 | 78 | 1016.5 |
| 20260505074106 | 40 | 360 | 4.0 | 10.0 | 0.02 | 0.02 | 0.02 | 78 | 1016.5 |
| 20260505073526 | 40 | 360 | 4.0 | 6.0 | 0.02 | 0.02 | 0.02 | 77 | 1016.5 |
| 20260505073049 | 40 | 360 | 1.0 | 10.0 | 0.02 | 0.02 | 0.02 | 76 | 1016.5 |
| 20260505072531 | 41 | 360 | 6.0 | 10.0 | 0.01 | 0.01 | 0.01 | 76 | 1016.5 |
| 20260505072034 | 41 | 360 | 4.0 | 18.0 | 0.01 | 0.01 | 0.01 | 74 | 1016.5 |
| 20260505071556 | 41 | 360 | 7.0 | 18.0 | 0.01 | 0.01 | 0.01 | 73 | 1016.5 |
| 20260505071040 | 42 | 360 | 6.0 | 11.0 | 0.01 | 0.01 | 0.01 | 72 | 1016.4 |
| 20260505070540 | 42 | 360 | 4.0 | 9.0 | 0.01 | 0.01 | 0.01 | 72 | 1016.4 |
| 20260505070042 | 43 | 360 | 4.0 | 10.0 | 0.00 | 0.00 | 0.00 | 70 | 1016.4 |
| 20260505065524 | 43 | 360 | 3.0 | 20.0 | 0.00 | 0.00 | 0.00 | 69 | 1016.4 |
| 20260505065028 | 43 | 360 | 13.0 | 20.0 | 0.00 | 0.00 | 0.00 | 67 | 1016.3 |
| 20260505064551 | 44 | 360 | 0.0 | 11.0 | 0.00 | 0.00 | 0.00 | 65 | 1016.2 |
| 20260505064113 | 44 | 360 | 3.0 | 12.0 | 0.00 | 0.00 | 0.00 | 64 | 1016.2 |
| 20260505063613 | 44 | 360 | 4.0 | 14.0 | 0.00 | 0.00 | 0.00 | 63 | 1016.2 |
| 20260505063033 | 45 | 360 | 10.0 | 14.0 | 0.00 | 0.00 | 0.00 | 61 | 1016.0 |
| 20260505062555 | 46 | 360 | 7.0 | 12.0 | 0.00 | 0.00 | 0.00 | 60 | 1016.0 |
| 20260505062037 | 46 | 360 | 9.0 | 12.0 | 0.00 | 0.00 | 0.00 | 58 | 1015.9 |
| 20260505061523 | 46 | 360 | 5.0 | 10.0 | 0.00 | 0.00 | 0.00 | 57 | 1015.7 |
| 20260505061025 | 46 | 360 | 0.0 | 3.0 | 0.00 | 0.00 | 0.00 | 56 | 1015.7 |
| 20260505060528 | 46 | 360 | 0.0 | 0.0 | 0.00 | 0.00 | 0.00 | 59 | 1015.7 |
| 20260505060030 | 46 | 360 | 0.0 | 0.0 | 0.00 | 0.00 | 0.00 | 58 | 1015.6 |
| 20260505055553 | 46 | 360 | 0.0 | 0.0 | 0.00 | 0.00 | 0.00 | 58 | 1015.5 |
| 20260505055115 | 46 | 360 | 0.0 | 0.0 | 0.00 | 0.00 | 0.00 | 56 | 1015.5 |
| 20260505054556 | 46 | 360 | 0.0 | 6.0 | 0.00 | 0.00 | 0.00 | 57 | 1015.6 |
| 20260505054037 | 46 | 360 | 1.0 | 7.0 | 0.00 | 0.00 | 0.00 | 59 | 1015.6 |
| 20260505053538 | 47 | 360 | 2.0 | 11.0 | 0.00 | 0.00 | 0.00 | 56 | 1015.5 |
| 20260505053039 | 47 | 360 | 6.0 | 12.0 | 0.00 | 0.00 | 0.00 | 53 | 1015.5 |
| 20260505052601 | 48 | 360 | 7.0 | 14.0 | 0.00 | 0.00 | 0.00 | 51 | 1015.6 |
| 20260505052043 | 48 | 360 | 11.0 | 15.0 | 0.00 | 0.00 | 0.00 | 49 | 1015.4 |
| 20260505051525 | 48 | 360 | 9.0 | 17.0 | 0.00 | 0.00 | 0.00 | 50 | 1015.4 |
| 20260505051108 | 48 | 360 | 9.0 | 17.0 | 0.00 | 0.00 | 0.00 | 49 | 1015.4 |
| 20260505050527 | 48 | 360 | 5.0 | 15.0 | 0.00 | 0.00 | 0.00 | 49 | 1015.3 |
| 20260505041532 | 50 | 360 | 10.0 | 12.0 | 0.00 | 0.00 | 0.00 | 43 | 1014.9 |
| 20260505041115 | 50 | 360 | 8.0 | 13.0 | 0.00 | 0.00 | 0.00 | 43 | 1014.8 |
| 20260505040036 | 51 | 360 | 4.0 | 11.0 | 0.00 | 0.00 | 0.00 | 43 | 1014.7 |
| 20260505035538 | 51 | 360 | 2.0 | 10.0 | 0.00 | 0.00 | 0.00 | 43 | 1014.6 |
| 20260505035100 | 51 | 360 | 5.0 | 11.0 | 0.00 | 0.00 | 0.00 | 42 | 1014.6 |
| 20260505034522 | 51 | 360 | 7.0 | 12.0 | 0.00 | 0.00 | 0.00 | 42 | 1014.5 |
| 20260505034026 | 51 | 360 | 5.0 | 14.0 | 0.00 | 0.00 | 0.00 | 42 | 1014.3 |
| 20260505033527 | 51 | 360 | 11.0 | 14.0 | 0.00 | 0.00 | 0.00 | 41 | 1014.3 |
| 20260505033110 | 51 | 360 | 9.0 | 14.0 | 0.00 | 0.00 | 0.00 | 41 | 1014.3 |
| 20260505032531 | 51 | 360 | 6.0 | 14.0 | 0.00 | 0.00 | 0.00 | 42 | 1014.2 |
| 20260505032114 | 51 | 360 | 8.0 | 12.0 | 0.00 | 0.00 | 0.00 | 43 | 1014.1 |
| 20260505031614 | 51 | 360 | 6.0 | 14.0 | 0.00 | 0.00 | 0.00 | 42 | 1014.0 |
| 20260505031037 | 51 | 360 | 11.0 | 20.0 | 0.00 | 0.00 | 0.00 | 41 | 1013.9 |
| 20260505030618 | 51 | 360 | 10.0 | 20.0 | 0.00 | 0.00 | 0.00 | 41 | 1013.7 |
| 20260505030038 | 51 | 360 | 11.0 | 18.0 | 0.00 | 0.00 | 0.00 | 41 | 1013.6 |
| 20260505025601 | 52 | 360 | 10.0 | 17.0 | 0.00 | 0.00 | 0.00 | 41 | 1013.5 |
| 20260505025022 | 52 | 360 | 13.0 | 20.0 | 0.00 | 0.00 | 0.00 | 41 | 1013.4 |
| 20260505024525 | 52 | 360 | 8.0 | 20.0 | 0.00 | 0.00 | 0.00 | 41 | 1013.3 |
| 20260505024027 | 52 | 360 | 12.0 | 20.0 | 0.00 | 0.00 | 0.00 | 40 | 1013.2 |
| 20260505023548 | 52 | 360 | 14.0 | 18.0 | 0.00 | 0.00 | 0.00 | 40 | 1013.1 |
| 20260505023030 | 52 | 360 | 10.0 | 17.0 | 0.00 | 0.00 | 0.00 | 40 | 1013.0 |
| 20260505022533 | 52 | 360 | 11.0 | 19.0 | 0.00 | 0.00 | 0.00 | 41 | 1012.9 |
| 20260505022056 | 53 | 360 | 11.0 | 19.0 | 0.00 | 0.00 | 0.00 | 40 | 1012.8 |
| 20260505021537 | 53 | 360 | 10.0 | 19.0 | 0.00 | 0.00 | 0.00 | 41 | 1012.7 |
| 20260505021026 | 53 | 360 | 13.0 | 20.0 | 0.00 | 0.00 | 0.00 | 41 | 1012.5 |
| 20260505020547 | 53 | 360 | 13.0 | 20.0 | 0.00 | 0.00 | 0.00 | 41 | 1012.4 |
| 20260505020027 | 53 | 360 | 10.0 | 18.0 | 0.00 | 0.00 | 0.00 | 40 | 1012.3 |
| 20260505015530 | 54 | 360 | 11.0 | 17.0 | 0.00 | 0.00 | 0.00 | 40 | 1012.2 |
| 20260505014036 | 55 | 360 | 13.0 | 19.0 | 0.00 | 0.00 | 0.00 | 39 | 1011.8 |
| 20260505013537 | 55 | 360 | 10.0 | 18.0 | 0.00 | 0.00 | 0.00 | 39 | 1011.7 |
| 20260505013100 | 55 | 360 | 10.0 | 17.0 | 0.00 | 0.00 | 0.00 | 39 | 1012.4 |
| 20260505012540 | 55 | 360 | 13.0 | 19.0 | 0.00 | 0.00 | 0.00 | 38 | 1012.3 |
| 20260505012022 | 56 | 360 | 11.0 | 19.0 | 0.00 | 0.00 | 0.00 | 38 | 1012.1 |
| 20260505011604 | 56 | 360 | 6.0 | 18.0 | 0.00 | 0.00 | 0.00 | 39 | 1012.0 |
| 20260505011123 | 56 | 360 | 11.0 | 16.0 | 0.00 | 0.00 | 0.00 | 38 | 1011.9 |
| 20260505010542 | 57 | 360 | 9.0 | 19.0 | 0.00 | 0.00 | 0.00 | 38 | 1011.9 |
| 20260505010044 | 57 | 360 | 7.0 | 19.0 | 0.00 | 0.00 | 0.00 | 38 | 1011.8 |
| 20260505005526 | 58 | 360 | 12.0 | 20.0 | 0.00 | 0.00 | 0.00 | 38 | 1011.7 |
| 20260505005028 | 58 | 360 | 12.0 | 20.0 | 0.00 | 0.00 | 0.00 | 38 | 1011.7 |
| 20260505004531 | 58 | 360 | 11.0 | 16.0 | 0.00 | 0.00 | 0.00 | 38 | 1011.5 |
| 20260505004054 | 58 | 360 | 7.0 | 17.0 | 0.00 | 0.00 | 0.00 | 38 | 1011.4 |
| 20260505003555 | 58 | 360 | 12.0 | 17.0 | 0.00 | 0.00 | 0.00 | 38 | 1011.3 |
| 20260505003036 | 58 | 360 | 9.0 | 15.0 | 0.00 | 0.00 | 0.00 | 38 | 1011.2 |
| 20260505002618 | 58 | 360 | 8.0 | 15.0 | 0.00 | 0.00 | 0.00 | 38 | 1011.2 |
| 20260505002059 | 59 | 360 | 8.0 | 14.0 | 0.00 | 0.00 | 0.00 | 38 | 1011.2 |
| 20260505001103 | 58 | 360 | 11.0 | 16.0 | 0.00 | 0.00 | 0.00 | 38 | 1011.0 |
| 20260505000544 | 59 | 360 | 11.0 | 16.0 | 0.00 | 0.00 | 0.00 | 38 | 1010.9 |
| 20260505000046 | 59 | 360 | 9.0 | 21.0 | 0.00 | 0.00 | 0.00 | 37 | 1010.9 |
| 20260504235547 | 61 | 360 | 12.0 | 21.0 | 0.00 | 0.00 | 0.00 | 37 | 1010.8 |
| 20260504235029 | 61 | 360 | 6.0 | 15.0 | 0.00 | 0.00 | 0.00 | 36 | 1010.7 |
| 20260504234613 | 61 | 360 | 5.0 | 14.0 | 0.00 | 0.00 | 0.00 | 36 | 1010.7 |
| 20260504234053 | 61 | 360 | 5.0 | 12.0 | 0.00 | 0.00 | 0.00 | 36 | 1010.6 |
| 20260504233535 | 61 | 360 | 4.0 | 11.0 | 0.00 | 0.00 | 0.00 | 37 | 1010.7 |
| 20260504233037 | 59 | 360 | 2.0 | 8.0 | 0.00 | 0.00 | 0.00 | 38 | 1010.8 |
| 20260504232540 | 59 | 360 | 2.0 | 8.0 | 0.00 | 0.00 | 0.00 | 38 | 1010.7 |
| 20260504232022 | 58 | 360 | 3.0 | 10.0 | 0.00 | 0.00 | 0.00 | 38 | 1010.7 |
| 20260504231529 | 58 | 360 | 5.0 | 11.0 | 0.00 | 0.00 | 0.00 | 38 | 1010.8 |
| 20260504231032 | 58 | 360 | 9.0 | 17.0 | 0.00 | 0.00 | 0.00 | 38 | 1010.7 |
| 20260504230613 | 58 | 360 | 9.0 | 17.0 | 0.00 | 0.00 | 0.00 | 38 | 1010.8 |
| 20260504230054 | 58 | 360 | 6.0 | 14.0 | 0.00 | 0.00 | 0.00 | 38 | 1010.9 |
| 20260504225556 | 58 | 360 | 12.0 | 14.0 | 0.00 | 0.00 | 0.00 | 38 | 1010.7 |
| 20260504225057 | 58 | 360 | 8.0 | 15.0 | 0.00 | 0.00 | 0.00 | 38 | 1010.6 |
| 20260504224539 | 58 | 360 | 8.0 | 17.0 | 0.00 | 0.00 | 0.00 | 38 | 1010.6 |
| 20260504224102 | 59 | 360 | 10.0 | 17.0 | 0.00 | 0.00 | 0.00 | 38 | 1010.5 |
| 20260504223542 | 59 | 360 | 13.0 | 18.0 | 0.00 | 0.00 | 0.00 | 37 | 1010.5 |
| 20260504223023 | 59 | 360 | 14.0 | 19.0 | 0.00 | 0.00 | 0.00 | 37 | 1010.5 |
| 20260504222526 | 60 | 360 | 16.0 | 19.0 | 0.00 | 0.00 | 0.00 | 37 | 1010.5 |
| 20260504222028 | 60 | 360 | 9.0 | 16.0 | 0.00 | 0.00 | 0.00 | 38 | 1010.3 |
| 20260504221532 | 60 | 360 | 6.0 | 16.0 | 0.00 | 0.00 | 0.00 | 37 | 1010.2 |
| 20260504221035 | 61 | 360 | 7.0 | 18.0 | 0.00 | 0.00 | 0.00 | 37 | 1010.3 |
| 20260504220537 | 61 | 360 | 13.0 | 18.0 | 0.00 | 0.00 | 0.00 | 36 | 1010.2 |
| 20260504220039 | 61 | 360 | 7.0 | 13.0 | 0.00 | 0.00 | 0.00 | 35 | 1010.0 |
| 20260504215601 | 62 | 360 | 3.0 | 16.0 | 0.00 | 0.00 | 0.00 | 34 | 1010.0 |
| 20260504215023 | 62 | 360 | 0.0 | 16.0 | 0.00 | 0.00 | 0.00 | 35 | 1010.1 |
| 20260504214545 | 61 | 360 | 1.0 | 11.0 | 0.00 | 0.00 | 0.00 | 35 | 1010.1 |
| 20260504214032 | 61 | 360 | 3.0 | 14.0 | 0.00 | 0.00 | 0.00 | 36 | 1010.2 |
| 20260504213553 | 60 | 360 | 2.0 | 14.0 | 0.00 | 0.00 | 0.00 | 36 | 1010.4 |
| 20260504213034 | 60 | 360 | 6.0 | 16.0 | 0.00 | 0.00 | 0.00 | 36 | 1010.3 |
| 20260504212537 | 60 | 360 | 6.0 | 16.0 | 0.00 | 0.00 | 0.00 | 37 | 1010.5 |
| 20260504212040 | 61 | 360 | 6.0 | 14.0 | 0.00 | 0.00 | 0.00 | 36 | 1010.5 |
| 20260504211522 | 60 | 360 | 5.0 | 16.0 | 0.00 | 0.00 | 0.00 | 37 | 1010.5 |
| 20260504211046 | 60 | 360 | 13.0 | 16.0 | 0.00 | 0.00 | 0.00 | 37 | 1010.6 |
| 20260504210526 | 60 | 360 | 8.0 | 12.0 | 0.00 | 0.00 | 0.00 | 37 | 1010.6 |
| 20260504210049 | 60 | 360 | 8.0 | 12.0 | 0.00 | 0.00 | 0.00 | 37 | 1010.6 |
| 20260504205550 | 59 | 360 | 3.0 | 14.0 | 0.00 | 0.00 | 0.00 | 37 | 1010.7 |
| 20260504205032 | 59 | 360 | 8.0 | 16.0 | 0.00 | 0.00 | 0.00 | 38 | 1010.8 |
| 20260504204555 | 60 | 360 | 8.0 | 16.0 | 0.00 | 0.00 | 0.00 | 37 | 1010.8 |
| 20260504204038 | 60 | 360 | 4.0 | 14.0 | 0.00 | 0.00 | 0.00 | 37 | 1010.8 |
| 20260504203539 | 61 | 360 | 4.0 | 14.0 | 0.00 | 0.00 | 0.00 | 38 | 1010.7 |
| 20260504203042 | 60 | 360 | 0.0 | 10.0 | 0.00 | 0.00 | 0.00 | 37 | 1010.8 |
| 20260504202545 | 60 | 360 | 1.0 | 12.0 | 0.00 | 0.00 | 0.00 | 37 | 1010.7 |
| 20260504201547 | 61 | 360 | 7.0 | 13.0 | 0.00 | 0.00 | 0.00 | 38 | 1011.7 |
| 20260504201029 | 60 | 360 | 2.0 | 10.0 | 0.00 | 0.00 | 0.00 | 38 | 1011.8 |
| 20260504200611 | 61 | 360 | 3.0 | 9.0 | 0.00 | 0.00 | 0.00 | 37 | 1011.8 |
| 20260504200032 | 61 | 360 | 5.0 | 9.0 | 0.00 | 0.00 | 0.00 | 37 | 1011.9 |
| 20260504195555 | 60 | 360 | 4.0 | 7.0 | 0.00 | 0.00 | 0.00 | 38 | 1011.8 |
| 20260504195116 | 60 | 360 | 4.0 | 7.0 | 0.00 | 0.00 | 0.00 | 38 | 1011.8 |
| 20260504194537 | 59 | 360 | 0.0 | 11.0 | 0.00 | 0.00 | 0.00 | 39 | 1011.9 |
| 20260504194039 | 59 | 360 | 8.0 | 12.0 | 0.00 | 0.00 | 0.00 | 39 | 1011.9 |
| 20260504193602 | 59 | 360 | 3.0 | 12.0 | 0.00 | 0.00 | 0.00 | 39 | 1012.0 |
| 20260504193101 | 59 | 360 | 3.0 | 10.0 | 0.00 | 0.00 | 0.00 | 39 | 1012.0 |
| 20260504192024 | 59 | 360 | 1.0 | 14.0 | 0.00 | 0.00 | 0.00 | 38 | 1012.3 |
| 20260504191547 | 59 | 360 | 8.0 | 14.0 | 0.00 | 0.00 | 0.00 | 38 | 1012.3 |
| 20260504191110 | 59 | 360 | 2.0 | 12.0 | 0.00 | 0.00 | 0.00 | 37 | 1012.3 |
| 20260504190529 | 60 | 360 | 5.0 | 12.0 | 0.00 | 0.00 | 0.00 | 38 | 1012.5 |
| 20260504190031 | 59 | 360 | 0.0 | 0.0 | 0.00 | 0.00 | 0.00 | 37 | 1012.4 |
| 20260504185554 | 59 | 360 | 0.0 | 0.0 | 0.00 | 0.00 | 0.00 | 37 | 1012.5 |
| 20260504185040 | 59 | 360 | 0.0 | 6.0 | 0.00 | 0.00 | 0.00 | 38 | 1012.6 |
| 20260504184522 | 58 | 360 | 0.0 | 12.0 | 0.00 | 0.00 | 0.00 | 38 | 1012.7 |
| 20260504184025 | 58 | 360 | 9.0 | 15.0 | 0.00 | 0.00 | 0.00 | 39 | 1012.8 |
| 20260504183546 | 57 | 360 | 0.0 | 15.0 | 0.00 | 0.00 | 0.00 | 39 | 1012.9 |
| 20260504183028 | 58 | 360 | 5.0 | 13.0 | 0.00 | 0.00 | 0.00 | 38 | 1012.9 |
| 20260504182551 | 57 | 360 | 0.0 | 9.0 | 0.00 | 0.00 | 0.00 | 38 | 1012.9 |
| 20260504182032 | 57 | 360 | 1.0 | 9.0 | 0.00 | 0.00 | 0.00 | 39 | 1013.0 |
| 20260504181551 | 58 | 360 | 5.0 | 9.0 | 0.00 | 0.00 | 0.00 | 39 | 1013.2 |
| 20260504181114 | 57 | 360 | 1.0 | 12.0 | 0.00 | 0.00 | 0.00 | 39 | 1013.2 |
| 20260504180533 | 57 | 360 | 8.0 | 12.0 | 0.00 | 0.00 | 0.00 | 39 | 1013.3 |
| 20260504175552 | 57 | 360 | 0.0 | 11.0 | 0.00 | 0.00 | 0.00 | 39 | 1013.4 |
| 20260504175054 | 57 | 360 | 2.0 | 11.0 | 0.00 | 0.00 | 0.00 | 39 | 1013.5 |
| 20260504174557 | 57 | 360 | 2.0 | 9.0 | 0.00 | 0.00 | 0.00 | 39 | 1013.4 |
| 20260504174039 | 57 | 360 | 1.0 | 11.0 | 0.00 | 0.00 | 0.00 | 39 | 1013.4 |
| 20260504173601 | 57 | 360 | 5.0 | 11.0 | 0.00 | 0.00 | 0.00 | 39 | 1013.2 |
| 20260504173103 | 57 | 360 | 1.0 | 4.0 | 0.00 | 0.00 | 0.00 | 39 | 1013.2 |
| 20260504172544 | 57 | 360 | 0.0 | 5.0 | 0.00 | 0.00 | 0.00 | 40 | 1013.2 |
| 20260504172026 | 56 | 360 | 0.0 | 6.0 | 0.00 | 0.00 | 0.00 | 40 | 1013.2 |
| 20260504171549 | 56 | 360 | 1.0 | 5.0 | 0.00 | 0.00 | 0.00 | 40 | 1013.3 |
| 20260504171052 | 56 | 360 | 2.0 | 6.0 | 0.00 | 0.00 | 0.00 | 40 | 1013.3 |
| 20260504170532 | 55 | 360 | 1.0 | 9.0 | 0.00 | 0.00 | 0.00 | 41 | 1013.3 |
| 20260504150601 | 53 | 360 | 10.0 | 21.0 | 0.00 | 0.00 | 0.00 | 42 | 1013.6 |
| 20260504150123 | 53 | 360 | 12.0 | 19.0 | 0.00 | 0.00 | 0.00 | 42 | 1013.6 |
| 20260504141024 | 53 | 360 | 12.0 | 22.0 | 0.00 | 0.00 | 0.00 | 45 | 1012.9 |
| 20260504140545 | 53 | 360 | 11.0 | 23.0 | 0.00 | 0.00 | 0.00 | 45 | 1012.8 |
| 20260504130614 | 42 | 360 | 0.0 | 0.0 | 0.00 | 0.00 | 0.00 | 63 | 1011.3 |
| 20260504110544 | 38 | 360 | 0.0 | 0.0 | 0.00 | 0.00 | 0.00 | 66 | 1009.1 |
| 20260504100545 | 40 | 360 | 5.0 | 6.0 | 0.00 | 0.00 | 0.00 | 64 | 1009.0 |